Weather WX

World > North America > United States > California

La Jolla, California Regional Weather

Lat: 32.85N, Lon: 117.27W
Wx Zone: CAZ043
Feedback

La Jolla, CA Regional Weather

Expires:201907160900;;718758
ASUS46 KSGX 160811
RWRSGX

SAN DIEGO HOURLY WEATHER ROUNDUP
NATIONAL WEATHER SERVICE SAN DIEGO CA
100 AM PDT TUE JUL 16 2019

NOTE: "FAIR" INDICATES FEW OR NO CLOUDS BELOW 12,000 FEET WITH NO 
SIGNIFICANT WEATHER AND/OR OBSTRUCTIONS TO VISIBILITY.


CAZ042-043-060-061-PZZ750-775-160900-

GREATER SAN DIEGO AREA
  
CITY           SKY/WX    TMP DP  RH WIND       PRES   REMARKS
SAN DIEGO AP   PTCLDY    67  65  93 NW3       29.86F                  
NATIONAL CITY    N/A     68  29  23 CALM      29.86S                  
CHULA VISTA      N/A     67  65  92 CALM      29.76                   
BROWN FIELD    FOG       61  61 100 W3        29.85F VSB 1/4          
MIRAMAR MCAS   CLEAR     65  59  81 CALM      29.85F                  
MONTGOMERY FLD CLEAR     67  63  87 SW3       29.85F                  
GILLESPIE FLD  FAIR      68  59  73 NW5       29.84F                  

$$

NORTH SAN DIEGO COUNTY
  
CITY           SKY/WX    TMP DP  RH WIND       PRES   REMARKS
CAMP PENDLETON CLEAR     60  58  92 NE3       29.84F                  
OCEANSIDE AP   CLEAR     60  57  89 CALM      29.84F FOG              
OCEANSIDE HBR    N/A     65  63  92 CALM      29.86F                  
VISTA            N/A     64  58  81 CALM      29.82F                  
CARLSBAD       CLEAR     68  63  84 CALM      29.84F HAZE             
DEL MAR          N/A     64  62  94 CALM      29.85F                  
LA JOLLA SCRIP   N/A     65  63  92 CALM      29.84F                  
FALLBROOK      FAIR      64  61  88 CALM      29.86F                  
ESCONDIDO        N/A     72  60  65 W1        29.83F                  
SAN MARCOS       N/A     66  60  83 CALM      29.87F                  
POWAY            N/A     65  56  72 CALM      29.85F                  

$$

EAST SAN DIEGO COUNTY
  
CITY           SKY/WX    TMP DP  RH WIND       PRES   REMARKS
RAMONA         CLEAR     63  52  67 E3        29.88F                  
SANTEE LAKES     N/A     66  59  79 N1        29.81F                  
LA MESA          N/A     67  62  85 CALM      29.79F                  
JAMUL            N/A     66  59  77 CALM      29.83F                  
DESCANSO N       N/A     61  40  45 NE3       29.78F                  
MT. LAGUNA OBS   N/A     63  31  29 W12       29.72                   
CAMPO            N/A     58  45  62 N3        29.94F                  

$$

ORANGE COUNTY AND THE LOS ANGELES BASIN
  
CITY           SKY/WX    TMP DP  RH WIND       PRES   REMARKS
JOHN WAYNE AP  CLEAR     66  62  87 CALM      29.83F                  
LAGUNA BEACH     N/A     65  63  91 N2        29.83F                  
LAKE FOREST FR   N/A     67  57  72 CALM      29.70F                  
HUNTINGTON BCH   N/A     65  64  97 CALM      29.84F                  
LOS ALAMITOS   FAIR      64  62  93 SW3       29.83F                  
FULLERTON      CLEAR     67  60  78 CALM      29.83F                  
LONG BEACH     CLEAR     67  61  81 S3        29.84F                  
L.A. AP        PTCLDY    63  60  90 SW5       29.84F                  
L.A. DOWNTOWN  CLEAR     67  61  81 CALM      29.83F                  

$$

THE INLAND EMPIRE
  
CITY           SKY/WX    TMP DP  RH WIND       PRES   REMARKS
CORONA         CLEAR     69  62  78 MISG        N/A                   
CHINO          CLEAR     68  61  78 CALM      29.86F                  
ONTARIO        CLEAR     77  63  61 SW8       29.85F                  
SAN BERNARDINO FAIR      78  50  37 CALM      29.87F                  
RIVERSIDE AP   CLEAR     75  58  55 NW3       29.85F                  
MORENO VALLEY    N/A     76  59  55 SE1       28.02S                  
MARCH ARB      CLEAR     66  51  57 CALM      29.88F                  
PERRIS           N/A     75  59  58 SE1       29.86S                  
HEMET EAST       N/A     74  44  33 CALM      29.85F                  
FRENCH VALLEY  FAIR      68  52  56 SE5       29.89S                  
TEMECULA         N/A     72  58  62 CALM      29.87S                  

$$

SAN BERNARDINO AND RIVERSIDE COUNTY MOUNTAINS
  
CITY           SKY/WX    TMP DP  RH WIND       PRES   REMARKS
BIG BEAR AP    CLEAR     48  32  53 CALM      30.22F                  
ANGELUS OAKS     N/A     59  33  37 CALM      29.73                   

$$

SOUTHERN DESERT INCLUDING THE COACHELLA VALLEY
  
CITY           SKY/WX    TMP DP  RH WIND       PRES   REMARKS
PALM SPRINGS   CLEAR     89  43  20 S6        29.74S                  
THOUSAND PALMS   N/A     92  46  20 NW9       29.67F                  
PALM DESERT      N/A     88  50  26 CALM      27.73S                  
THERMAL        CLEAR     95  43  16 NW13      29.66S                  
BORREGO AP     FAIR      88  34  14 W7G13     29.74F                  
BLYTHE         CLEAR     91  47  21 SE9       29.69S                  
IMPERIAL AP    CLEAR     86  36  16 NW9       29.69S                  
EL CENTRO NAS  CLEAR     84  34  16 NW8       29.71S                  
YUMA AZ        CLEAR     90  38  16 W9        29.69F                  
MEXICALI       PTCLDY    91  32  12 NW10      29.71S                  

$$

UPPER DESERT
  
CITY           SKY/WX    TMP DP  RH WIND       PRES   REMARKS
HESPERIA         N/A     71  51  49 SW2       29.80S                  
APPLE VALLEY     N/A     67  50  54 CALM      29.83F                  
PALMDALE       CLEAR     77  37  23 W9        29.95F                  
LANCASTER      CLEAR     78  44  29 W14       29.92F                  
EDWARDS AFB    CLEAR     76  36  24 SW14      29.89S                  
DAGGETT        CLEAR     82  34  17 W14       29.86F                  
29 PALMS N     CLEAR     85  32  15 NW9       29.92F                  
NEEDLES        CLEAR     97  24   7 E5        29.71S                  

$$

REGIONAL REPORTS
  
CITY           SKY/WX    TMP DP  RH WIND       PRES   REMARKS
SANTA BARBARA  CLEAR     61  58  90 CALM      29.82S                  
SANDBERG       CLEAR     71  43  36 NW17G24   30.10F                  
LAS VEGAS NV   CLEAR     92  21   7 SW3       29.79S                  
PHOENIX AZ     PTCLDY    96  52  22 SW7       29.72S                  
TIJUANA        PTCLDY    66  63  88 N5        29.88F                  
ENSENADA NW      N/A     63  32  30 CALM      29.81F                  

$$

OFFSHORE ISLANDS
  
CITY           SKY/WX    TMP DP  RH WIND       PRES   REMARKS
CATALINA ARPT  CLEAR     73  51  46 SW5       29.89F                  
SAN CLEMENTE I CLEAR     62 N/A N/A MISG      29.85F                  
SAN NICOLAS IS CLEAR    N/A N/A N/A NW29G36   29.84F                  

$$

MARINE AND OFFSHORE BUOY REPORTS
  
STATION/POSITION SKY/WX   TEMP    WIND        PRES    VSBY  SWELL
                          AIR SEA DIR/SP/G                  HT/PER/DIR
                          (F)     (DEG/KT/KT) (MB)    (MI)  (FT/S/D)
TANNER BANKS               62 63  310/ 21/ 25 1011.7F         3/190/15
S CLEMENTE BASIN           63 63  240/  4/  6 1010.5F         5/200/16
SAN NICOLAS IS.               60                N/A           3/190/15
SO. S. ROSA ISLA           59 56  310/ 27/ 37 1011.4F         3/200/16
W. S. BARBARA CH                                N/A           3/180/16
M. S. BARBARA CH           62 59  230/  2/  4 1010.2F         3/240/ 7
S. MONICA BASIN            65 65   50/  6/  8 1010.4F         3/220/16
S PEDRO CHANNEL               70                N/A           2/180/17
CMP PENDLETON NS              70                N/A           2/210/15
OCEANSIDE OFFSHR              71                N/A           3/200/15
TORREY PINES OTR              71                N/A           3/200/15
SAN DIEGO BAY                 70              1010.5
IMPERIAL BEACH                67                N/A           2/240/15
POINT LOMA SOUTH              66                N/A           3/200/15

$$

  

SKY/WX - Weather  TMP - Temperature  DP - Dew Point  RH - Relative Humidity
WIND - Wind Direction/Speed PRES - Barometric Pressure VSB - Visibility
WCI - Wind Chill Index E13G22 Wind - East Wind 13 mph/Gusts of 22 mph